Time,TemperatureF,DewpointF,PressureIn,WindDirection,WindDirectionDegrees,WindSpeedMPH,WindSpeedGustMPH,Humidity,HourlyPrecipIn,Conditions,Clouds,dailyrainin,SoftwareType,DateUTC
2013-05-16 00:05:00,53.0,48.0,29.97,SE,138,0.0,-999.0,84,-99.99,,,0.00,weatherlink.com 1.10,2013-05-16 07:05:00,
2013-05-16 00:20:00,53.0,49.0,29.98,SE,138,0.0,-999.0,85,-99.99,,,0.00,weatherlink.com 1.10,2013-05-16 07:20:00,
2013-05-16 00:35:00,53.3,49.0,29.96,East,79,0.0,-999.0,85,-99.99,,,0.00,weatherlink.com 1.10,2013-05-16 07:35:00,
2013-05-16 00:50:00,54.8,50.0,29.98,SW,225,0.0,-999.0,83,-99.99,,,0.00,weatherlink.com 1.10,2013-05-16 07:50:00,
2013-05-16 01:05:00,55.2,50.0,29.97,SSE,154,1.0,-999.0,82,-99.99,,,0.00,weatherlink.com 1.10,2013-05-16 08:05:00,
2013-05-16 01:20:00,55.5,50.0,29.97,ENE,78,1.0,-999.0,82,-99.99,,,0.00,weatherlink.com 1.10,2013-05-16 08:20:00,
2013-05-16 01:35:00,55.7,50.0,29.97,East,93,0.0,-999.0,82,-99.99,,,0.00,weatherlink.com 1.10,2013-05-16 08:35:00,
2013-05-16 01:50:00,55.8,50.0,29.96,ESE,102,0.0,-999.0,82,-99.99,,,0.00,weatherlink.com 1.10,2013-05-16 08:50:00,
2013-05-16 02:05:00,55.7,51.0,29.96,ESE,102,0.0,-999.0,83,-99.99,,,0.00,weatherlink.com 1.10,2013-05-16 09:05:00,
2013-05-16 02:20:00,55.7,51.0,29.96,North,360,0.0,-999.0,83,-99.99,,,0.00,weatherlink.com 1.10,2013-05-16 09:20:00,
2013-05-16 02:35:00,55.6,51.0,29.96,East,82,0.0,-999.0,84,-99.99,,,0.00,weatherlink.com 1.10,2013-05-16 09:35:00,
2013-05-16 02:50:00,55.5,51.0,29.96,East,82,0.0,-999.0,84,-99.99,,,0.00,weatherlink.com 1.10,2013-05-16 09:50:00,
2013-05-16 03:05:00,55.4,51.0,29.96,ENE,57,0.0,-999.0,84,-99.99,,,0.00,weatherlink.com 1.10,2013-05-16 10:05:00,
2013-05-16 03:20:00,55.3,51.0,29.95,ENE,58,0.0,-999.0,84,-99.99,,,0.00,weatherlink.com 1.10,2013-05-16 10:20:00,
2013-05-16 03:35:00,55.3,51.0,29.95,ENE,59,0.0,-999.0,85,-99.99,,,0.00,weatherlink.com 1.10,2013-05-16 10:35:00,
2013-05-16 03:50:00,55.2,51.0,29.95,NW,311,0.0,-999.0,86,-99.99,,,0.00,weatherlink.com 1.10,2013-05-16 10:50:00,
2013-05-16 04:05:00,55.2,51.0,29.95,NW,309,0.0,-999.0,86,-99.99,,,0.00,weatherlink.com 1.10,2013-05-16 11:05:00,
2013-05-16 04:20:00,55.3,51.0,29.95,NW,309,0.0,-999.0,86,-99.99,,,0.00,weatherlink.com 1.10,2013-05-16 11:20:00,
2013-05-16 04:35:00,55.2,51.0,29.95,NW,309,0.0,-999.0,86,-99.99,,,0.00,weatherlink.com 1.10,2013-05-16 11:35:00,
2013-05-16 04:50:00,55.2,51.0,29.95,NW,309,0.0,-999.0,86,-99.99,,,0.00,weatherlink.com 1.10,2013-05-16 11:50:00,
2013-05-16 05:05:00,55.1,51.0,29.95,NW,309,0.0,-999.0,86,-99.99,,,0.00,weatherlink.com 1.10,2013-05-16 12:05:00,
2013-05-16 05:20:00,55.1,51.0,29.95,NW,309,0.0,-999.0,86,-99.99,,,0.00,weatherlink.com 1.10,2013-05-16 12:20:00,
2013-05-16 05:35:00,55.1,51.0,29.95,NW,309,0.0,-999.0,86,-99.99,,,0.00,weatherlink.com 1.10,2013-05-16 12:35:00,
2013-05-16 05:50:00,55.1,51.0,29.95,NW,309,0.0,-999.0,86,-99.99,,,0.00,weatherlink.com 1.10,2013-05-16 12:50:00,
2013-05-16 06:05:00,55.1,51.0,29.97,NW,309,0.0,-999.0,87,-99.99,,,0.00,weatherlink.com 1.10,2013-05-16 13:05:00,
2013-05-16 06:20:00,55.1,51.0,29.97,NW,309,0.0,-999.0,87,-99.99,,,0.00,weatherlink.com 1.10,2013-05-16 13:20:00,
2013-05-16 06:35:00,55.2,51.0,29.97,NW,309,0.0,-999.0,87,-99.99,,,0.00,weatherlink.com 1.10,2013-05-16 13:35:00,
2013-05-16 06:50:00,55.3,52.0,29.98,SSW,193,0.0,-999.0,87,-99.99,,,0.00,weatherlink.com 1.10,2013-05-16 13:50:00,
2013-05-16 07:05:00,55.5,52.0,29.98,SSW,193,0.0,-999.0,87,-99.99,,,0.00,weatherlink.com 1.10,2013-05-16 14:05:00,
2013-05-16 07:20:00,55.7,52.0,29.98,SSW,194,0.0,-999.0,87,-99.99,,,0.00,weatherlink.com 1.10,2013-05-16 14:20:00,
2013-05-16 07:35:00,56.0,52.0,29.98,SSW,193,0.0,-999.0,87,-99.99,,,0.00,weatherlink.com 1.10,2013-05-16 14:35:00,
2013-05-16 07:50:00,56.4,53.0,29.99,SSW,193,0.0,-999.0,87,-99.99,,,0.00,weatherlink.com 1.10,2013-05-16 14:50:00,
2013-05-16 08:05:00,56.8,53.0,29.98,South,175,1.0,-999.0,87,-99.99,,,0.00,weatherlink.com 1.10,2013-05-16 15:05:00,
2013-05-16 08:20:00,57.3,53.0,29.99,South,173,0.0,-999.0,86,-99.99,,,0.00,weatherlink.com 1.10,2013-05-16 15:20:00,
2013-05-16 08:35:00,58.1,54.0,30.00,South,171,0.0,-999.0,85,-99.99,,,0.00,weatherlink.com 1.10,2013-05-16 15:35:00,
2013-05-16 08:50:00,58.7,54.0,30.00,SSW,196,0.0,-999.0,84,-99.99,,,0.00,weatherlink.com 1.10,2013-05-16 15:50:00,
2013-05-16 09:05:00,59.6,54.0,30.00,SSW,197,0.0,-999.0,83,-99.99,,,0.00,weatherlink.com 1.10,2013-05-16 16:05:00,
2013-05-16 09:21:00,60.9,54.0,30.00,SSE,167,1.0,-999.0,79,-99.99,,,0.00,weatherlink.com 1.10,2013-05-16 16:21:00,
2013-05-16 09:36:00,62.0,55.0,30.00,SE,140,0.0,-999.0,79,-99.99,,,0.00,weatherlink.com 1.10,2013-05-16 16:36:00,
2013-05-16 09:51:00,63.3,56.0,29.99,SSW,202,0.0,-999.0,76,-99.99,,,0.00,weatherlink.com 1.10,2013-05-16 16:51:00,
2013-05-16 10:06:00,64.9,56.0,29.99,South,182,0.0,-999.0,74,-99.99,,,0.00,weatherlink.com 1.10,2013-05-16 17:06:00,
2013-05-16 10:21:00,67.2,57.0,29.99,SSE,155,2.0,-999.0,69,-99.99,,,0.00,weatherlink.com 1.10,2013-05-16 17:21:00,
2013-05-16 10:36:00,69.2,58.0,29.99,South,184,1.0,-999.0,67,-99.99,,,0.00,weatherlink.com 1.10,2013-05-16 17:36:00,
2013-05-16 11:06:00,71.4,58.0,29.99,SW,217,3.0,-999.0,63,-99.99,,,0.00,weatherlink.com 1.10,2013-05-16 18:06:00,
2013-05-16 11:21:00,71.9,57.0,29.99,SE,138,0.0,-999.0,60,-99.99,,,0.00,weatherlink.com 1.10,2013-05-16 18:21:00,
2013-05-16 11:36:00,71.4,58.0,29.99,ESE,121,0.0,-999.0,62,-99.99,,,0.00,weatherlink.com 1.10,2013-05-16 18:36:00,
2013-05-16 11:51:00,72.0,58.0,29.98,East,90,3.0,-999.0,61,-99.99,,,0.00,weatherlink.com 1.10,2013-05-16 18:51:00,
2013-05-16 12:06:00,72.2,57.0,29.98,SE,138,1.0,-999.0,60,-99.99,,,0.00,weatherlink.com 1.10,2013-05-16 19:06:00,
2013-05-16 12:21:00,72.2,57.0,29.98,ESE,113,1.0,-999.0,59,-99.99,,,0.00,weatherlink.com 1.10,2013-05-16 19:21:00,
2013-05-16 12:36:00,72.7,57.0,29.98,SE,139,3.0,-999.0,59,-99.99,,,0.00,weatherlink.com 1.10,2013-05-16 19:36:00,
2013-05-16 12:51:00,71.8,57.0,29.97,South,176,2.0,-999.0,61,-99.99,,,0.00,weatherlink.com 1.10,2013-05-16 19:51:00,
2013-05-16 13:06:00,69.8,57.0,29.98,ESE,111,0.0,-999.0,63,-99.99,,,0.00,weatherlink.com 1.10,2013-05-16 20:06:00,
2013-05-16 13:21:00,70.1,56.0,29.97,SE,132,0.0,-999.0,62,-99.99,,,0.00,weatherlink.com 1.10,2013-05-16 20:21:00,
2013-05-16 13:36:00,69.2,55.0,29.97,ESE,119,1.0,-999.0,62,-99.99,,,0.00,weatherlink.com 1.10,2013-05-16 20:36:00,
2013-05-16 13:51:00,68.9,55.0,29.97,SE,127,1.0,-999.0,62,-99.99,,,0.00,weatherlink.com 1.10,2013-05-16 20:51:00,
2013-05-16 14:06:00,68.5,56.0,29.97,SE,126,0.0,-999.0,64,-99.99,,,0.00,weatherlink.com 1.10,2013-05-16 21:06:00,
2013-05-16 14:21:00,67.7,55.0,29.97,SSE,147,2.0,-999.0,65,-99.99,,,0.00,weatherlink.com 1.10,2013-05-16 21:21:00,
2013-05-16 14:36:00,67.1,55.0,29.96,SE,140,1.0,-999.0,65,-99.99,,,0.00,weatherlink.com 1.10,2013-05-16 21:36:00,
2013-05-16 14:51:00,68.3,55.0,29.96,SE,129,5.0,-999.0,63,-99.99,,,0.00,weatherlink.com 1.10,2013-05-16 21:51:00,
2013-05-16 15:06:00,70.4,54.0,29.95,SSW,194,0.0,-999.0,57,-99.99,,,0.00,weatherlink.com 1.10,2013-05-16 22:06:00,
2013-05-16 15:21:00,71.5,54.0,29.95,SSW,194,3.0,-999.0,54,-99.99,,,0.00,weatherlink.com 1.10,2013-05-16 22:21:00,
2013-05-16 15:36:00,69.7,54.0,29.95,South,179,5.0,-999.0,58,-99.99,,,0.00,weatherlink.com 1.10,2013-05-16 22:36:00,
2013-05-16 15:51:00,68.5,53.0,29.95,South,188,0.0,-999.0,58,-99.99,,,0.00,weatherlink.com 1.10,2013-05-16 22:51:00,
2013-05-16 16:06:00,67.9,54.0,29.95,SSE,161,0.0,-999.0,61,-99.99,,,0.00,weatherlink.com 1.10,2013-05-16 23:06:00,
2013-05-16 16:21:00,68.7,54.0,29.95,SSW,209,0.0,-999.0,59,-99.99,,,0.00,weatherlink.com 1.10,2013-05-16 23:21:00,
2013-05-16 16:36:00,68.6,54.0,29.94,South,185,2.0,-999.0,61,-99.99,,,0.00,weatherlink.com 1.10,2013-05-16 23:36:00,
2013-05-16 16:51:00,70.5,53.0,29.94,SSE,155,0.0,-999.0,54,-99.99,,,0.00,weatherlink.com 1.10,2013-05-16 23:51:00,
2013-05-16 17:06:00,71.7,52.0,29.94,South,169,2.0,-999.0,50,-99.99,,,0.00,weatherlink.com 1.10,2013-05-17 00:06:00,
2013-05-16 17:21:00,71.9,50.0,29.93,East,100,4.0,-999.0,46,-99.99,,,0.00,weatherlink.com 1.10,2013-05-17 00:21:00,
2013-05-16 17:36:00,71.6,51.0,29.93,SW,215,2.0,-999.0,48,-99.99,,,0.00,weatherlink.com 1.10,2013-05-17 00:36:00,
2013-05-16 17:51:00,71.3,50.0,29.93,East,100,2.0,-999.0,47,-99.99,,,0.00,weatherlink.com 1.10,2013-05-17 00:51:00,
2013-05-16 18:07:00,69.2,50.0,29.93,SE,137,2.0,-999.0,50,-99.99,,,0.00,weatherlink.com 1.10,2013-05-17 01:07:00,
2013-05-16 18:22:00,67.1,51.0,29.93,East,82,2.0,-999.0,57,-99.99,,,0.00,weatherlink.com 1.10,2013-05-17 01:22:00,
2013-05-16 18:37:00,64.5,51.0,29.93,SSW,206,1.0,-999.0,62,-99.99,,,0.00,weatherlink.com 1.10,2013-05-17 01:37:00,
2013-05-16 18:53:00,62.3,51.0,29.93,SSW,205,3.0,-999.0,66,-99.99,,,0.00,weatherlink.com 1.10,2013-05-17 01:53:00,
2013-05-16 19:08:00,60.5,51.0,29.93,South,190,1.0,-999.0,70,-99.99,,,0.00,weatherlink.com 1.10,2013-05-17 02:08:00,
2013-05-16 19:23:00,59.8,50.0,29.93,South,190,0.0,-999.0,71,-99.99,,,0.00,weatherlink.com 1.10,2013-05-17 02:23:00,
2013-05-16 19:38:00,59.2,50.0,29.93,NW,313,0.0,-999.0,72,-99.99,,,0.00,weatherlink.com 1.10,2013-05-17 02:38:00,
2013-05-16 19:53:00,58.9,50.0,29.94,NNW,348,0.0,-999.0,72,-99.99,,,0.00,weatherlink.com 1.10,2013-05-17 02:53:00,
2013-05-16 20:08:00,58.7,50.0,29.94,NNW,348,0.0,-999.0,73,-99.99,,,0.00,weatherlink.com 1.10,2013-05-17 03:08:00,
2013-05-16 20:23:00,58.1,50.0,29.94,NNW,348,0.0,-999.0,74,-99.99,,,0.00,weatherlink.com 1.10,2013-05-17 03:23:00,
2013-05-16 20:38:00,57.5,50.0,29.94,NNW,348,0.0,-999.0,75,-99.99,,,0.00,weatherlink.com 1.10,2013-05-17 03:38:00,
2013-05-16 20:53:00,56.8,49.0,29.94,NW,315,3.0,-999.0,74,-99.99,,,0.00,weatherlink.com 1.10,2013-05-17 03:53:00,
2013-05-16 21:08:00,56.6,47.0,29.95,SE,140,0.0,-999.0,71,-99.99,,,0.00,weatherlink.com 1.10,2013-05-17 04:08:00,
2013-05-16 21:23:00,56.4,47.0,29.95,SE,140,0.0,-999.0,71,-99.99,,,0.00,weatherlink.com 1.10,2013-05-17 04:23:00,
2013-05-16 21:38:00,56.2,47.0,29.95,North,355,1.0,-999.0,71,-99.99,,,0.00,weatherlink.com 1.10,2013-05-17 04:38:00,
2013-05-16 21:53:00,55.9,47.0,29.95,North,5,0.0,-999.0,73,-99.99,,,0.00,weatherlink.com 1.10,2013-05-17 04:53:00,
2013-05-16 22:08:00,55.4,46.0,29.95,NE,55,0.0,-999.0,72,-99.99,,,0.00,weatherlink.com 1.10,2013-05-17 05:08:00,
2013-05-16 22:23:00,55.0,46.0,29.95,East,81,0.0,-999.0,73,-99.99,,,0.00,weatherlink.com 1.10,2013-05-17 05:23:00,
2013-05-16 22:38:00,54.9,46.0,29.95,East,87,0.0,-999.0,73,-99.99,,,0.00,weatherlink.com 1.10,2013-05-17 05:38:00,
2013-05-16 22:53:00,54.9,46.0,29.96,South,170,0.0,-999.0,73,-99.99,,,0.00,weatherlink.com 1.10,2013-05-17 05:53:00,
2013-05-16 23:08:00,54.8,46.0,29.96,South,170,0.0,-999.0,73,-99.99,,,0.00,weatherlink.com 1.10,2013-05-17 06:08:00,
2013-05-16 23:23:00,54.5,46.0,29.96,ENE,58,0.0,-999.0,73,-99.99,,,0.00,weatherlink.com 1.10,2013-05-17 06:23:00,
2013-05-16 23:38:00,54.4,46.0,29.95,SSW,204,0.0,-999.0,72,-99.99,,,0.00,weatherlink.com 1.10,2013-05-17 06:38:00,
2013-05-16 23:53:00,54.6,46.0,29.95,South,188,0.0,-999.0,72,-99.99,,,0.00,weatherlink.com 1.10,2013-05-17 06:53:00,